Location: Hains Lake
(37.8540°N, 99.8578°W)
Time: 10:03:32
(UTC+00:00)

Tiros 1 despin weight - Pass Details

Date: 26 April 2021
Orbit: 593 x 642 km, 48.2° (Epoch: 07 May)

Event Time Altitude Azimuth Distance (km) Brightness Sun altitude
Rises 16:54:16 0° 287° (WNW) 2,864 ? 56.8°
Reaches altitude 10° 16:57:28 10° 263° (W) 1,945 ? 57.3°
Maximum altitude 16:59:55 15° 230° (SW) 1,649 ? 57.6°
Drops below altitude 10° 17:02:22 10° 196° (SSW) 1,925 ? 58.0°
Sets 17:05:31 0° 172° (S) 2,815 ? 58.5°
